User: anonymous   Login
Location: Unspecified
(0.0000°N, 0.0000°E)
Time: 04:52:02
(UTC+00:00)
Language:

TDRS 9 - Orbit

View from above orbital plane
View from above orbital plane
View from above satellite
View from above satellite

Ground track
Ground track

The orbit data is extracted from the following two-line orbital elements,

1 27389U 02011A   18292.74164753 -.00000103  00000-0  00000+0 0  9996
2 27389   6.2465  73.5028 0018479 248.2533 321.2434  1.00271190 62384
Epoch (UTC): 19 October 2018 17:47:58
Eccentricity: 0.0018479
inclination: 6.2465°
perigee height: 35708 km
apogee height: 35864 km
right ascension of ascending node: 73.5028°
argument of perigee: 248.2533°
revolutions per day: 1.00271190
mean anomaly at epoch: 321.2434°
orbit number at epoch: 6238

The dashed part of the orbit path shows where the satellite is in the earth's shadow,  

DLR